sat.trackr.live / text

‹ back to catalog

STARLINK-32632

NORAD 62262 · 2024-231V

PAYLOAD ACTIVE UNKNOWN

§ Identity

Operator
Country
US
Launch date
2024-12-05
Launch site
AFWTR
Launch vehicle
Mass (kg)
RCS (m²)

Purposes: comms

External: N2YO · Heavens-Above · Gunter

§ Orbital elements

Epoch: 2026-05-25T05:12:25.044192Z

Period
94.10 min
Inclination
53.1604°
Eccentricity
0.0001362
Mean motion
15.30209227 rev/d
Perigee alt
474.3 km
Apogee alt
476.1 km
Semi-major
6,853.3 km
B*
5.7577e-4
RAAN
224.2655°
Arg perigee
82.7530°
Mean anomaly
277.3625°
Rev number
8,348

§ Raw data

STARLINK-326321 62262U 24231V   26145.21695653  .00016737  00000+0  57577-3 0  99922 62262  53.1604 224.2655 0001362  82.7530 277.3625 15.30209227 83488

JSON: /api/v1/satellites/62262 · /tle

For live sub-satellite position, see the globe view (requires WebGL).

§ Visibility from observer

Set your observer location to see the next 7 days of passes ≥ 10°. The values pass through the URL so the page stays shareable.

No JS? Fill the form by hand. The geolocation button needs JavaScript.